EZS1343 LSGG-LFQQ

Flight info

Callsign EZS1343
Flight time 0h 56m
Altitude 32000
Route SIROD1N SIROD Z124 IBABA DCT TUTAX DCT OBURO DCT OKRIX DCT CLM DCT KOPOR DCT PERON N874 CMB CMB5D
Aircraft A320/M-SDE3FGHIRWY/LB1

Departure

Time 2026-04-17 06:15
Airport Geneva International Airport (LSGG)

Arrival

Time 2026-04-17 07:11
Airport Lille Airport (LFQQ)
Time Latitude Longitude Altitude Speed Heading
2026-04-17 05:56 46.22797 6.09977 1399 ft 0 kts 135°
2026-04-17 06:09 46.22803 6.09968 1400 ft 4 kts 135°
2026-04-17 06:09 46.22823 6.09941 1398 ft 4 kts 135°
2026-04-17 06:09 46.22842 6.09914 1401 ft 4 kts 136°
2026-04-17 06:10 46.22863 6.09889 1403 ft 4 kts 153°
2026-04-17 06:10 46.22885 6.09881 1406 ft 4 kts 206°
2026-04-17 06:10 46.22900 6.09899 1399 ft 4 kts 225°
2026-04-17 06:10 46.22904 6.09905 1397 ft 1 kts 225°
2026-04-17 06:12 46.22902 6.09902 1398 ft 4 kts 225°
2026-04-17 06:12 46.22855 6.09833 1399 ft 12 kts 226°
2026-04-17 06:13 46.22802 6.09754 1395 ft 10 kts 225°
2026-04-17 06:13 46.22754 6.09683 1398 ft 13 kts 225°
2026-04-17 06:13 46.22671 6.09562 1399 ft 20 kts 225°
2026-04-17 06:13 46.22571 6.09401 1402 ft 22 kts 240°
2026-04-17 06:14 46.22554 6.09220 1411 ft 15 kts 275°
2026-04-17 06:14 46.22608 6.09152 1416 ft 9 kts
2026-04-17 06:14 46.22649 6.09197 1420 ft 7 kts 45°
2026-04-17 06:14 46.22764 6.09370 1421 ft 58 kts 45°
2026-04-17 06:15 46.23216 6.10030 1410 ft 124 kts 45°
2026-04-17 06:15 46.23946 6.11104 1461 ft 167 kts 46°
2026-04-17 06:15 46.24748 6.12339 2109 ft 171 kts 47°
2026-04-17 06:15 46.25588 6.13626 2655 ft 185 kts 45°
2026-04-17 06:16 46.26553 6.15040 2980 ft 210 kts 45°
2026-04-17 06:16 46.27644 6.16621 3415 ft 234 kts 45°
2026-04-17 06:16 46.28855 6.18380 3940 ft 255 kts 45°
2026-04-17 06:16 46.30123 6.20229 4775 ft 262 kts 45°
2026-04-17 06:17 46.31420 6.22127 5666 ft 268 kts 45°
2026-04-17 06:17 46.32900 6.23807 6498 ft 275 kts 26°
2026-04-17 06:17 46.34759 6.24488 7289 ft 280 kts 359°
2026-04-17 06:17 46.36666 6.23908 8132 ft 283 kts 333°
2026-04-17 06:18 46.38220 6.22186 8984 ft 284 kts 312°
2026-04-17 06:18 46.39599 6.20117 9913 ft 287 kts 312°
2026-04-17 06:18 46.40997 6.18016 10582 ft 297 kts 312°
2026-04-17 06:18 46.42487 6.15773 10858 ft 321 kts 313°
2026-04-17 06:19 46.44076 6.13385 11309 ft 334 kts 313°
2026-04-17 06:19 46.45709 6.10941 12023 ft 340 kts 313°
2026-04-17 06:19 46.47364 6.08475 12808 ft 343 kts 313°
2026-04-17 06:19 46.49037 6.05985 13596 ft 346 kts 314°
2026-04-17 06:20 46.50731 6.03464 14310 ft 350 kts 314°
2026-04-17 06:20 46.52437 6.00924 14983 ft 353 kts 314°
2026-04-17 06:20 46.54136 5.98387 15639 ft 356 kts 314°
2026-04-17 06:20 46.55890 5.95754 16322 ft 359 kts 313°
2026-04-17 06:21 46.57609 5.93164 16973 ft 362 kts 313°
2026-04-17 06:21 46.59363 5.90520 17632 ft 365 kts 313°
2026-04-17 06:21 46.61137 5.87855 18293 ft 368 kts 313°
2026-04-17 06:21 46.62930 5.85163 18865 ft 371 kts 313°
2026-04-17 06:22 46.64732 5.82449 19420 ft 374 kts 313°
2026-04-17 06:22 46.66542 5.79718 19993 ft 376 kts 313°
2026-04-17 06:22 46.68362 5.76969 20550 ft 378 kts 313°
2026-04-17 06:22 46.70192 5.74201 21092 ft 381 kts 313°
2026-04-17 06:23 46.72038 5.71411 21640 ft 383 kts 313°
2026-04-17 06:23 46.73896 5.68601 22165 ft 385 kts 313°
2026-04-17 06:23 46.75762 5.65774 22668 ft 388 kts 312°
2026-04-17 06:23 46.77638 5.62924 23180 ft 391 kts 312°
2026-04-17 06:24 46.79526 5.60051 23691 ft 393 kts 312°
2026-04-17 06:24 46.81425 5.57158 24124 ft 396 kts 312°
2026-04-17 06:24 46.83334 5.54248 24542 ft 398 kts 312°
2026-04-17 06:24 46.85254 5.51322 24971 ft 400 kts 312°
2026-04-17 06:25 46.87185 5.48375 25373 ft 402 kts 312°
2026-04-17 06:25 46.89121 5.45411 25781 ft 404 kts 312°
2026-04-17 06:25 46.91058 5.42439 26179 ft 406 kts 312°
2026-04-17 06:25 46.93014 5.39441 26559 ft 408 kts 312°
2026-04-17 06:26 46.94988 5.36418 26940 ft 410 kts 312°
2026-04-17 06:26 46.96937 5.33426 27324 ft 412 kts 312°
2026-04-17 06:26 46.98924 5.30371 27697 ft 415 kts 311°
2026-04-17 06:26 47.00920 5.27294 28062 ft 417 kts 311°
2026-04-17 06:27 47.02252 5.25239 28306 ft 419 kts 311°
2026-04-17 06:27 47.04267 5.22132 28672 ft 421 kts 311°
2026-04-17 06:27 47.06292 5.19006 29038 ft 423 kts 311°
2026-04-17 06:27 47.08324 5.15864 29373 ft 425 kts 311°
2026-04-17 06:28 47.10363 5.12710 29699 ft 427 kts 311°
2026-04-17 06:28 47.12407 5.09544 30021 ft 429 kts 311°
2026-04-17 06:28 47.14470 5.06349 30333 ft 431 kts 311°
2026-04-17 06:28 47.16545 5.03133 30605 ft 433 kts 311°
2026-04-17 06:29 47.18621 4.99910 30880 ft 434 kts 311°
2026-04-17 06:29 47.20698 4.96681 31152 ft 436 kts 311°
2026-04-17 06:29 47.22755 4.93479 31464 ft 436 kts 311°
2026-04-17 06:29 47.24835 4.90238 31854 ft 434 kts 311°
2026-04-17 06:30 47.26901 4.87014 32153 ft 433 kts 311°
2026-04-17 06:30 47.30969 4.80645 32224 ft 420 kts 311°
2026-04-17 06:31 47.34951 4.74392 32226 ft 417 kts 311°
2026-04-17 06:31 47.38912 4.68161 32228 ft 416 kts 311°
2026-04-17 06:32 47.42870 4.61917 32231 ft 416 kts 311°
2026-04-17 06:32 47.46830 4.55655 32236 ft 416 kts 310°
2026-04-17 06:33 47.50777 4.49399 32248 ft 416 kts 310°
2026-04-17 06:33 47.54730 4.43133 32241 ft 416 kts 310°
2026-04-17 06:34 47.58676 4.36863 32237 ft 416 kts 310°
2026-04-17 06:34 47.62652 4.30715 32234 ft 417 kts 319°
2026-04-17 06:35 47.67500 4.25906 32219 ft 420 kts 324°
2026-04-17 06:35 47.72416 4.21206 32215 ft 420 kts 324°
2026-04-17 06:36 47.77332 4.16500 32241 ft 420 kts 324°
2026-04-17 06:36 47.82240 4.11779 32231 ft 420 kts 324°
2026-04-17 06:37 47.87151 4.07049 32228 ft 420 kts 324°
2026-04-17 06:37 47.92070 4.02298 32226 ft 420 kts 324°
2026-04-17 06:38 47.96937 3.97571 32238 ft 420 kts 324°
2026-04-17 06:38 48.01843 3.92820 32237 ft 420 kts 324°
2026-04-17 06:39 48.06737 3.88059 32234 ft 420 kts 324°
2026-04-17 06:39 48.11638 3.83282 32233 ft 420 kts 324°
2026-04-17 06:40 48.16544 3.78489 32238 ft 420 kts 324°
2026-04-17 06:40 48.21425 3.73697 32235 ft 420 kts 324°
2026-04-17 06:41 48.26329 3.68891 32234 ft 420 kts 324°
2026-04-17 06:41 48.31209 3.64092 32232 ft 420 kts 324°
2026-04-17 06:42 48.36102 3.59266 32235 ft 420 kts 324°
2026-04-17 06:42 48.40963 3.54465 32252 ft 420 kts 324°
2026-04-17 06:43 48.45848 3.49631 32244 ft 420 kts 324°
2026-04-17 06:43 48.50717 3.44781 32235 ft 419 kts 324°
2026-04-17 06:44 48.55592 3.39927 32234 ft 419 kts 324°
2026-04-17 06:44 48.60467 3.35073 32254 ft 419 kts 324°
2026-04-17 06:45 48.65330 3.30212 32248 ft 419 kts 324°
2026-04-17 06:45 48.70191 3.25335 32248 ft 419 kts 324°
2026-04-17 06:46 48.75053 3.20452 32245 ft 419 kts 324°
2026-04-17 06:46 48.79911 3.15559 32238 ft 419 kts 324°
2026-04-17 06:47 48.84755 3.10654 32240 ft 419 kts 324°
2026-04-17 06:47 48.89607 3.05739 32235 ft 419 kts 324°
2026-04-17 06:48 48.94454 3.00825 32234 ft 419 kts 324°
2026-04-17 06:48 48.99307 2.95890 32238 ft 419 kts 324°
2026-04-17 06:49 49.04118 2.90986 32245 ft 419 kts 324°
2026-04-17 06:49 49.08966 2.86039 32250 ft 419 kts 324°
2026-04-17 06:50 49.13801 2.81085 32254 ft 418 kts 324°
2026-04-17 06:50 49.18627 2.76128 32248 ft 418 kts 324°
2026-04-17 06:50 49.21040 2.73648 32129 ft 419 kts 324°
2026-04-17 06:51 49.23458 2.71161 31871 ft 418 kts 324°
2026-04-17 06:51 49.25852 2.68697 31412 ft 415 kts 324°
2026-04-17 06:51 49.28240 2.66239 30838 ft 412 kts 324°
2026-04-17 06:51 49.30605 2.63799 30270 ft 409 kts 324°
2026-04-17 06:52 49.32957 2.61368 29674 ft 405 kts 324°
2026-04-17 06:52 49.35278 2.58963 29135 ft 401 kts 324°
2026-04-17 06:52 49.37577 2.56577 28598 ft 396 kts 324°
2026-04-17 06:52 49.39847 2.54218 28075 ft 392 kts 324°
2026-04-17 06:53 49.42092 2.51879 27545 ft 388 kts 324°
2026-04-17 06:53 49.44317 2.49557 27038 ft 385 kts 323°
2026-04-17 06:53 49.46571 2.47384 26523 ft 383 kts 332°
2026-04-17 06:53 49.49083 2.46017 26046 ft 383 kts 346°
2026-04-17 06:54 49.51732 2.45630 25551 ft 384 kts 359°
2026-04-17 06:54 49.54383 2.46249 25046 ft 387 kts 14°
2026-04-17 06:54 49.56864 2.47858 24525 ft 389 kts 28°
2026-04-17 06:54 49.59116 2.50156 24039 ft 388 kts 32°
2026-04-17 06:55 49.61345 2.52493 23489 ft 387 kts 32°
2026-04-17 06:55 49.63535 2.54787 23024 ft 384 kts 32°
2026-04-17 06:55 49.65736 2.57093 22544 ft 381 kts 32°
2026-04-17 06:55 49.67922 2.59382 22063 ft 378 kts 32°
2026-04-17 06:56 49.70097 2.61663 21582 ft 377 kts 32°
2026-04-17 06:56 49.72259 2.63932 21106 ft 376 kts 32°
2026-04-17 06:56 49.74422 2.66206 20605 ft 375 kts 32°
2026-04-17 06:56 49.76577 2.68475 20104 ft 375 kts 32°
2026-04-17 06:57 49.78736 2.70753 19609 ft 375 kts 32°
2026-04-17 06:57 49.80899 2.73036 19091 ft 376 kts 32°
2026-04-17 06:57 49.83060 2.75318 18583 ft 377 kts 32°
2026-04-17 06:57 49.85223 2.77603 18032 ft 377 kts 32°
2026-04-17 06:58 49.87388 2.79893 17530 ft 375 kts 32°
2026-04-17 06:58 49.89539 2.82170 17066 ft 373 kts 33°
2026-04-17 06:58 49.91677 2.84435 16608 ft 371 kts 32°
2026-04-17 06:58 49.93826 2.86627 16159 ft 369 kts 31°
2026-04-17 06:59 49.95995 2.88758 15695 ft 367 kts 30°
2026-04-17 06:59 49.98162 2.90849 15252 ft 366 kts 30°
2026-04-17 06:59 50.00329 2.92930 14807 ft 365 kts 30°
2026-04-17 06:59 50.02481 2.95007 14353 ft 364 kts 30°
2026-04-17 07:00 50.04630 2.97102 13883 ft 364 kts 31°
2026-04-17 07:00 50.06762 2.99205 13406 ft 362 kts 31°
2026-04-17 07:00 50.08880 3.01307 12946 ft 359 kts 31°
2026-04-17 07:00 50.10985 3.03398 12487 ft 357 kts 32°
2026-04-17 07:01 50.13048 3.05445 12024 ft 355 kts 32°
2026-04-17 07:01 50.15128 3.07505 11569 ft 353 kts 32°
2026-04-17 07:01 50.17198 3.09557 11091 ft 352 kts 32°
2026-04-17 07:01 50.19259 3.11606 10634 ft 350 kts 32°
2026-04-17 07:02 50.21289 3.13629 10462 ft 339 kts 32°
2026-04-17 07:02 50.23207 3.15652 10333 ft 327 kts 39°
2026-04-17 07:02 50.24936 3.17873 10208 ft 317 kts 39°
2026-04-17 07:02 50.26619 3.20041 9934 ft 312 kts 39°
2026-04-17 07:03 50.28280 3.22184 9400 ft 307 kts 39°
2026-04-17 07:03 50.29920 3.24296 8800 ft 302 kts 39°
2026-04-17 07:03 50.31525 3.26362 8220 ft 296 kts 39°
2026-04-17 07:03 50.33112 3.28411 7767 ft 296 kts 39°
2026-04-17 07:04 50.34682 3.30446 7425 ft 290 kts 39°
2026-04-17 07:04 50.36232 3.32455 6818 ft 286 kts 39°
2026-04-17 07:04 50.37748 3.34420 6300 ft 279 kts 39°
2026-04-17 07:04 50.39352 3.36091 5901 ft 276 kts 25°
2026-04-17 07:05 50.41159 3.37063 5822 ft 274 kts 11°
2026-04-17 07:05 50.43031 3.37669 5787 ft 275 kts 11°
2026-04-17 07:05 50.44902 3.38291 5164 ft 274 kts 11°
2026-04-17 07:05 50.46712 3.38901 4846 ft 259 kts 12°
2026-04-17 07:06 50.48442 3.39480 4524 ft 246 kts 11°
2026-04-17 07:06 50.50085 3.39956 4045 ft 241 kts
2026-04-17 07:06 50.51737 3.39782 3859 ft 236 kts 347°
2026-04-17 07:06 50.53346 3.39233 3635 ft 235 kts 346°
2026-04-17 07:07 50.54941 3.38687 3442 ft 235 kts 346°
2026-04-17 07:07 50.56538 3.38131 3232 ft 236 kts 343°
2026-04-17 07:07 50.58008 3.36992 3031 ft 234 kts 319°
2026-04-17 07:07 50.59046 3.35088 2813 ft 227 kts 296°
2026-04-17 07:08 50.59522 3.32764 2536 ft 222 kts 274°
2026-04-17 07:08 50.59406 3.30396 2309 ft 215 kts 255°
2026-04-17 07:08 50.59086 3.28130 2152 ft 208 kts 256°
2026-04-17 07:08 50.58782 3.25959 1946 ft 198 kts 255°
2026-04-17 07:09 50.58496 3.23915 1722 ft 185 kts 254°
2026-04-17 07:09 50.58316 3.22631 1539 ft 177 kts 254°
2026-04-17 07:09 50.57984 3.20270 1261 ft 154 kts 254°
2026-04-17 07:09 50.57762 3.18698 1040 ft 142 kts 253°
2026-04-17 07:10 50.57551 3.17205 841 ft 138 kts 254°
2026-04-17 07:10 50.57412 3.16210 727 ft 138 kts 255°
2026-04-17 07:10 50.57207 3.14732 555 ft 139 kts 255°
2026-04-17 07:10 50.56996 3.13246 362 ft 139 kts 255°
2026-04-17 07:11 50.56781 3.11768 208 ft 139 kts 255°
2026-04-17 07:11 50.56588 3.10423 163 ft 97 kts 257°
2026-04-17 07:11 50.56503 3.09820 167 ft 26 kts 258°
2026-04-17 07:11 50.56525 3.09645 166 ft 15 kts 335°
2026-04-17 07:12 50.56594 3.09613 166 ft 4 kts 347°
2026-04-17 07:12 50.56625 3.09604 167 ft 4 kts 350°
2026-04-17 07:12 50.56648 3.09606 167 ft 7 kts 18°
2026-04-17 07:12 50.56692 3.09746 167 ft 18 kts 78°
2026-04-17 07:13 50.56720 3.09951 167 ft 20 kts 78°
2026-04-17 07:13 50.56753 3.10179 164 ft 23 kts 77°
2026-04-17 07:13 50.56799 3.10339 161 ft 14 kts
2026-04-17 07:13 50.56913 3.10308 160 ft 21 kts 349°
2026-04-17 07:14 50.56996 3.10400 157 ft 18 kts 78°
2026-04-17 07:14 50.57021 3.10549 158 ft 12 kts 63°
2026-04-17 07:14 50.57086 3.10597 158 ft 10 kts 13°
2026-04-17 07:14 50.57101 3.10602 158 ft 0 kts 13°